Tracking 19817 objects as of 20-Aug-2019
HD Live streaming from Space Station
objects crossing your sky now

THORAD DELTA 1 DEB

Track THORAD DELTA 1 DEB now!
10-day predictions


NORAD ID: 42600
Int'l Code: 1974-089FR
Perigee: 1,424.4 km
Apogee: 1,506.8 km
Inclination: 101.6 °
Period: 115.1 minutes
Semi major axis: 7836 km
RCS: Unknown
Launch date: November 15, 1974
Source: United States (US)
Launch site: AIR FORCE WESTERN TEST RANGE (AFWTR)

Note: This is SATELLITE DEBRIS
aabbcc
Your satellite tracking list
Your tracking list is empty




NASA's NSSDC Master Catalog

Two Line Element Set (TLE):
1 42600U 74089FR  16235.29564104 +.00000089 +00000-0 +85552-3 0  9993
2 42600 101.5654 263.1755 0052625 320.3049 037.9026 12.51445564455756
Source of the keplerian elements: AFSPC